DW9783 Weather Reports


time (UTC)temp
F
wind
direction
speed
knots
gust
knots
rain 1hr
in
rain 24hr
in
rain mn
in
humidity
%
barometer
mb
20260506191107 60 160 0.0 3.5 0.00 0.00 0.00 77 1009.2
20260506190004 61 173 0.0 0.9 0.00 0.00 0.00 76 1009.0
20260506185003 61 174 2.6 3.5 0.00 0.00 0.00 75 1008.9
20260506184106 62 193 3.5 11.3 0.00 0.00 0.00 75 1008.9
20260506183003 61 198 0.9 7.0 0.00 0.00 0.00 75 1008.8
20260506182107 61 237 0.9 3.5 0.00 0.00 0.00 75 1008.8
20260506181107 62 188 2.6 8.7 0.00 0.00 0.00 75 1008.8
20260506180004 62 203 3.5 7.0 0.00 0.00 0.00 74 1008.7
20260506175003 62 190 3.5 11.3 0.00 0.00 0.00 74 1008.7
20260506174106 62 191 3.5 11.3 0.00 0.00 0.00 74 1008.8
20260506173003 62 208 3.5 7.8 0.00 0.00 0.00 74 1008.6
20260506172004 62 210 2.6 7.8 0.00 0.00 0.00 74 1008.6
20260506171003 62 201 2.6 6.1 0.00 0.00 0.00 73 1008.6
20260506170003 63 208 2.6 7.0 0.00 0.00 0.00 72 1008.7
20260506165106 63 213 2.6 5.2 0.00 0.00 0.00 71 1008.9
20260506164003 64 218 2.6 7.8 0.00 0.00 0.00 70 1008.7
20260506163004 64 206 2.6 8.7 0.00 0.00 0.00 70 1008.8
20260506162107 64 196 1.7 5.2 0.00 0.00 0.00 70 1008.9
20260506161003 64 211 1.7 5.2 0.00 0.00 0.00 69 1009.2
20260506160106 64 184 3.5 7.8 0.00 0.00 0.00 70 1009.2
20260506155004 64 197 3.5 10.4 0.00 0.00 0.00 69 1009.2
20260506154107 63 182 2.6 9.6 0.00 0.00 0.00 69 1009.2
20260506153107 64 174 1.7 8.7 0.00 0.00 0.00 69 1009.3
20260506152106 64 182 1.7 4.3 0.00 0.00 0.00 69 1009.2
20260506151003 64 192 3.5 5.2 0.00 0.00 0.00 69 1009.3
20260506150107 64 174 4.3 9.6 0.00 0.00 0.00 68 1009.4
20260506145107 64 180 5.2 15.6 0.00 0.00 0.00 68 1009.4
20260506144003 64 180 6.1 17.4 0.00 0.00 0.00 67 1009.4
20260506143003 64 177 6.1 14.8 0.00 0.00 0.00 69 1009.4
20260506142003 64 182 5.2 11.3 0.00 0.00 0.00 68 1009.5
20260506141107 64 182 4.3 14.8 0.00 0.00 0.00 68 1009.6
20260506140107 64 184 2.6 11.3 0.00 0.00 0.00 67 1009.7
20260506135107 64 196 2.6 9.6 0.00 0.00 0.00 68 1009.8
20260506134106 64 194 3.5 7.8 0.00 0.00 0.00 69 1009.8
20260506133107 64 210 3.5 8.7 0.00 0.00 0.00 68 1009.8
20260506132004 64 212 3.5 12.2 0.00 0.00 0.00 68 1009.9
20260506131107 64 188 4.3 7.8 0.00 0.00 0.00 68 1010.1
20260506130004 64 207 5.2 11.3 0.00 0.00 0.00 67 1010.1
20260506125106 64 209 6.1 11.3 0.00 0.00 0.00 67 1010.2
20260506124004 64 192 6.1 13.0 0.00 0.00 0.00 67 1010.5
20260506123004 64 196 7.0 15.6 0.00 0.00 0.00 67 1010.1
20260506122003 64 176 7.8 17.4 0.00 0.00 0.00 69 1010.3
20260506121003 64 178 7.0 15.6 0.00 0.00 0.00 66 1010.2
20260506120003 65 185 6.1 14.8 0.00 0.00 0.00 65 1010.4
20260506115004 64 179 7.0 13.9 0.00 0.00 0.00 65 1010.4
20260506114003 64 183 6.1 14.8 0.00 0.00 0.00 66 1010.5
20260506113106 65 192 6.1 11.3 0.00 0.00 0.00 66 1010.5
20260506112106 65 178 6.1 14.8 0.00 0.00 0.00 65 1010.5
20260506111107 66 182 7.8 12.2 0.00 6.53 0.00 65 1010.5
20260506110004 66 169 7.8 14.8 0.00 6.53 0.00 65 1010.7
20260506105003 67 177 7.0 18.2 0.00 6.53 0.00 63 1010.8
20260506104106 65 210 6.1 12.2 0.00 6.53 0.00 67 1010.8
20260506103106 65 188 5.2 9.6 0.00 6.53 0.00 68 1010.8
20260506102004 66 196 5.2 13.9 0.00 6.53 0.00 66 1010.8
20260506101107 67 216 5.2 9.6 0.00 6.53 0.00 68 1010.9
20260506100106 66 185 5.2 19.1 0.00 6.53 0.00 68 1010.9
20260506095003 65 196 4.3 8.7 0.00 6.53 0.00 68 1011.0
20260506094106 66 193 6.1 14.8 0.00 6.53 0.00 68 1010.9
20260506093107 67 181 4.3 13.9 0.00 6.53 0.00 64 1010.8
20260506092106 68 243 3.5 9.6 0.00 6.53 0.00 66 1010.8
20260506091003 67 197 3.5 8.7 0.00 6.53 0.00 64 1010.8
20260506090003 67 252 2.6 8.7 0.00 6.53 0.00 66 1010.7
20260506085004 66 228 2.6 6.1 0.00 6.53 0.00 67 1010.6
20260506084003 64 221 3.5 7.0 0.00 6.53 0.00 72 1010.7
20260506083106 64 243 3.5 9.6 0.00 6.53 0.00 70 1010.6
20260506082003 64 307 1.7 7.0 0.00 6.53 0.00 72 1010.8
20260506081004 63 235 1.7 7.8 0.00 6.53 0.00 73 1011.0
20260506080107 62 188 2.6 6.1 0.00 6.53 0.00 74 1011.0
20260506073106 62 184 4.3 13.0 0.00 6.53 0.00 72 1011.0
20260506072107 63 191 3.5 8.7 0.00 6.53 0.00 71 1010.9
20260506071107 63 203 3.5 10.4 0.00 6.53 0.00 71 1010.9
20260506070106 63 222 3.5 5.2 0.00 6.53 0.00 70 1010.8
20260506062106 61 296 0.9 3.5 0.00 6.53 0.00 75 1010.7
20260506061003 60 260 0.9 3.5 0.00 6.53 0.00 77 1010.7
20260506051003 59 211 2.6 8.7 0.00 6.53 0.00 78 1010.6
20260506050106 59 224 0.9 6.1 0.00 0.00 0.00 79 1010.5
20260506045107 58 253 0.9 6.1 0.00 0.00 0.00 80 1010.4
20260506044004 58 251 0.9 5.2 0.00 0.00 0.00 81 1010.4
20260506043107 58 282 0.0 2.6 0.00 0.00 0.00 81 1010.4
20260506042003 58 283 0.0 5.2 0.00 0.00 0.00 82 1010.5
20260506041003 57 282 0.0 4.3 0.00 0.00 0.00 82 1010.4
20260506040107 57 289 0.0 4.3 0.00 0.00 0.00 82 1010.5
20260506035107 57 271 0.9 7.0 0.00 0.00 0.00 81 1010.4
20260506034003 58 237 0.9 4.3 0.00 0.00 0.00 81 1010.3
20260506033106 58 204 0.9 4.3 0.00 0.00 0.00 81 1010.3
20260506032004 58 195 1.7 6.1 0.00 0.00 0.00 81 1010.4
20260506031107 58 229 1.7 6.1 0.00 0.00 0.00 81 1010.4
20260506030107 58 210 3.5 8.7 0.00 0.00 0.00 81 1010.4
20260506025106 57 204 4.3 8.7 0.00 0.00 0.00 81 1010.4
20260506024106 57 206 2.6 8.7 0.00 0.00 0.00 82 1010.6
20260506023004 57 218 0.9 4.3 0.00 0.00 0.00 83 1010.8
20260506022003 57 271 0.0 1.7 0.00 0.00 0.00 83 1010.8
20260506021106 56 272 0.0 0.9 0.00 0.00 0.00 83 1010.7
20260506020004 56 0 0.0 0.0 0.00 0.00 0.00 83 1010.8
20260506015107 56 269 0.0 1.7 0.00 0.00 0.00 82 1010.8
20260506014003 57 259 0.0 0.9 0.00 0.00 0.00 82 1010.6
20260506013106 57 0 0.0 0.0 0.00 0.00 0.00 81 1010.6
20260506012004 57 258 0.0 0.9 0.00 0.00 0.00 81 1010.6
20260506011107 57 258 0.0 1.7 0.00 0.00 0.00 80 1010.6
20260506010003 57 258 0.0 0.9 0.00 0.00 0.00 80 1010.5
20260506005106 58 269 0.9 4.3 0.00 0.00 0.00 79 1010.6
20260506004004 58 240 1.7 6.1 0.00 0.00 0.00 79 1010.6
20260506003107 58 266 3.5 7.8 0.00 0.00 0.00 79 1010.4
20260506002106 58 258 5.2 9.6 0.00 0.00 0.00 79 1010.3
20260506001003 58 210 7.0 15.6 0.00 0.00 0.00 79 1010.1
20260506000004 58 216 5.2 13.0 0.00 0.00 0.00 79 1010.1
20260505235107 58 228 5.2 10.4 0.00 0.00 0.00 79 1010.2
20260505234106 58 220 4.3 12.2 0.00 0.00 0.00 79 1010.2
20260505233003 58 240 5.2 13.9 0.00 0.00 0.00 78 1010.1
20260505232004 58 218 5.2 14.8 0.00 0.00 0.00 79 1010.2
20260505231107 58 249 7.0 12.2 0.00 0.00 0.00 79 1010.3
20260505230107 58 261 7.8 16.5 0.00 0.00 0.00 79 1010.3
20260505225003 58 262 7.8 19.1 0.00 0.00 0.00 78 1009.9
20260505224003 58 239 8.7 16.5 0.00 0.00 0.00 78 1009.9
20260505223004 58 236 7.8 18.2 0.00 0.00 0.00 77 1009.9
20260505222004 58 215 8.7 17.4 0.00 0.00 0.00 78 1009.9
20260505221003 58 209 9.6 21.7 0.00 0.00 0.00 77 1009.7
20260505220151 59 210 7.0 20.0 0.00 0.00 0.00 77 1009.8
20260505215003 59 220 6.1 16.5 0.00 0.00 0.00 77 1010.3
20260505214107 59 207 5.2 12.2 0.00 0.00 0.00 78 1010.5
20260505213004 59 220 3.5 18.2 0.00 0.00 0.00 78 1010.8
20260505212107 58 254 3.5 8.7 0.00 0.00 0.00 79 1011.1
20260505211106 58 245 3.5 9.6 0.00 0.00 0.00 80 1011.1
20260505210106 58 246 2.6 7.8 0.00 0.00 0.00 80 1011.1
20260505205106 58 254 2.6 6.1 0.00 0.00 0.00 80 1011.3
20260505204004 58 255 1.7 7.0 0.00 0.00 0.00 80 1011.3
20260505203003 58 281 2.6 9.6 0.00 0.00 0.00 80 1011.3
20260505202003 58 238 2.6 7.0 0.00 0.00 0.00 79 1011.3
20260505201106 59 265 2.6 8.7 0.00 0.00 0.00 79 1011.3
20260505200106 59 260 2.6 7.0 0.00 0.00 0.00 78 1011.3
20260505195107 59 265 2.6 8.7 0.00 0.00 0.00 77 1011.4
20260505194004 59 218 2.6 6.1 0.00 0.00 0.00 76 1011.5
20260505193003 59 251 2.6 7.0 0.00 0.00 0.00 76 1011.4
20260505192106 59 232 3.5 9.6 0.00 0.00 0.00 76 1011.3